Погода в Комсомольском

Россия / Республика Калмыкия     45°19′53″N   46°02′32″E
темп.,
°C
ветер,
м/с
пор.,
м/с
влажн.,
%
обл.,
%
осадки,
мм/ч
давл.,
гПа
погр.,
м
12 мая, ср
ср1200:00+13всв47762 0.0 1017161
03:00+12св35770 0.0 101688
06:00+13св45664 0.0 1017161
09:00+18всв45535 0.0 10171057
12:00+21в4547100 0.0 10161728
15:00+21в4549100 0.0 10161514
18:00+21в345269 0.0 1015304
21:00+17ююв45640 0.0 101595
13 мая, чт
чт1300:00+15юв33660 0.0 101444
03:00+14юв34690 0.0 101467
06:00+14юв23685 0.0 1015119
09:00+19юв23472 0.0 1015627
12:00+24в34370 0.0 10151049
15:00+28в55290 0.0 10141301
18:00+25вюв55360 0.0 1014816
21:00+19юв57570 0.0 1015245
14 мая, пт
пт1400:00+17вюв47683 0.0 1015213
03:00+16вюв47815 0.0 1015166
06:00+18в37685 0.0 1015197
09:00+25юв711400 0.0 1015679
12:00+30юв911265 0.0 1014945
15:00+29юв1014282 0.0 1014911
18:00+25вюв9163410 0.0 1014633
21:00+22вюв819315 0.0 1014461
15 мая, сб
сб1500:00+19вюв716450 0.0 1014348
03:00+19вюв717450 0.0 1013322
06:00+20вюв615450 0.0 1014335
09:00+27юв914260 0.0 1013696
12:00+30юв913190 0.0 10141159
15:00+31юв1014170 0.0 10131496
18:00+26вюв8143035 0.0 1014619
21:00+21вюв613480 0.0 1014313
16 мая, вс
вс1600:00+19вюв613573 0.0 1013267
03:00+19в513515 0.0 1013198
06:00+20вюв512470 0.0 1012264
09:00+28вюв813260 0.0 1012899
12:00+31вюв1114220 0.0 10111394
15:00+30вюв1316200 0.0 10101389
18:00+27вюв1016261 0.0 1010903
21:00+22в817382 0.0 1010463